Regional Weather Roundup
Issued by NWS

Home | Current Version | Previous Version | Text Only | Print | Product List | Glossary Off
Versions: 1 2 3 4 5 6 7 8 9 10 11 12 13 14 15 16 17 18 19 20 21 22 23 24 25 26 27 28 29 30 31 32 33 34 35 36 37 38 39 40 41 42 43 44 45 46 47 48 49 50

000
ASUS43 KFSD 270502
RWRSD

WEATHER ROUNDUP FOR SOUTH DAKOTA
NATIONAL WEATHER SERVICE SIOUX FALLS SD
1200 AM CDT FRI MAR 27 2015

NOTE: "FAIR" INDICATES FEW OR NO CLOUDS BELOW 12,000 FEET WITH NO
SIGNIFICANT WEATHER AND/OR OBSTRUCTIONS TO VISIBILITY.


SDZ001>005-009-010-012>017-270600-
NORTHWEST AND NORTH CENTRAL SOUTH DAKOTA

CITY           SKY/WX    TMP DP  RH WIND       PRES   REMARKS
BUFFALO          N/A     34  32  92 S12       30.08F WCI  25
FAITH            N/A     31  27  85 S7        30.19F WCI  24
MOBRIDGE       PTCLDY    26  14  60 E10       30.22S WCI  16
$$

SDZ012>016-024>037-041>051-057-063-072>074-270600-
SOUTHWEST AND SOUTH CENTRAL SOUTH DAKOTA

CITY           SKY/WX    TMP DP  RH WIND       PRES   REMARKS
RAPID CTY ARPT CLOUDY    33  27  78 SE8       30.17S WCI  26
PIERRE         PTCLDY    28  24  85 E6        30.24R WCI  22
CUSTER         MIX PCPN  32  30  92 CALM      30.12S
ELLSWORTH AFB  CLOUDY    34  28  77 S8        30.16S WCI  27
PHILIP         CLOUDY    33  26  75 S5        30.22S WCI  29
PINE RIDGE     LGT RAIN  37  32  82 VRB3      30.17R
SPEARFISH      CLOUDY    37  32  81 SE3       30.13S
WINNER         FAIR      33  28  81 SW3       30.24S
$$

SDZ004>011-016>023-039-040-270600-
NORTHEAST SOUTH DAKOTA

CITY           SKY/WX    TMP DP  RH WIND       PRES   REMARKS
ABERDEEN       CLEAR     20  13  74 NE3       30.30R
WATERTOWN      CLEAR     17  11  77 N8        30.25R WCI   7
SISSETON         N/A     19  14  81 N7        30.29R WCI  10
$$

SDZ017-020-022-023-036>040-048>070-270600-
SOUTHEAST SOUTH DAKOTA

CITY           SKY/WX    TMP DP  RH WIND       PRES   REMARKS
SIOUX FALLS    CLEAR     24  15  68 N8        30.25R WCI  15
HURON          CLEAR     20  12  71 NE6       30.28R WCI  12
MITCHELL       CLEAR     22  15  75 N5        30.28R WCI  16
YANKTON        CLEAR     27  18  69 N7        30.27R WCI  19
$$

ABBREVIATIONS USED IN REMARKS
   TC - TEMPERATURE IN CELSIUS
  WCI - WIND CHILL INDEX
   HX - HEAT INDEX
  VSB - VISIBILITY



USA.gov is the U.S. government's official web portal to all federal, state and local government web resources and services.